Meteopurmerend
purmerend
Purmerend - Baaienwijk



My webcam  My webcam


waarschuwing voor Onweer Meer informatie blitzortung!


Regen radar Meer informatie rain snow radar


Bezoek onze andere website:

CandyAppleRed WebdesignWebdesign Purmerend Candy Apple Red

MeteopurmerendBlog

Template documentation
and downloads



Onweer van: 26-07-2021 13:00 tot: 21:00 waarschuwing voor: Onweer niveau: Geel info button
Enkele onweersbuien, lokaal met hagel en veel neerslag in korte tijd.Kans op blikseminslag, hagel en veel neerslag in korte tijd.Verkeer en buitenactiviteiten kunnen hinder ondervinden.Mijd open water en open gebied, schuil niet onder bomen.Volg weerberichten en waarschuwingen.

15 daagse weersverwachting Hønefoss (NO)

  • Overzicht
  • Per uur
  • 15 dagen
  • Extra
  • Vergelijk
  • Kaarten
  • Dagkaart
  • Meer »
  • Info
  • Statistieken
  • Directe link
    Temp 6h Neerslag Wind  
 04:49     22:04    Daglengte: 17:15 Vandaag
20:00
21°
0.6 mm
2
 04:51     22:02    Daglengte: 17:11 Morgen
02:00
18°
4.8 mm
2
warningclass
08:00
19°
15.1 mm
2
14:00
20°
4.3 mm
2
20:00
20°
17.8 mm
3
warningclass
 04:53     21:59    Daglengte: 17:06 Woensdag 28 Jul
02:00
18°
34.1 mm
1
warningclass
08:00
18°
36.1 mm
1
14:00
20°
50.4 mm
2
20:00
19°
65.6 mm
2
warningclass
 04:56     21:57    Daglengte: 17:01 Donderdag 29 Jul
02:00
16°
13.5 mm
1
08:00
16°
27.8 mm
2
Locatie info
Region: Buskerud
Latitude: 60.1662°N
Longitude: 10.2582°E
70 masl
Postcode: 3510
Temp/Neerslag /Baro Onweer/Dauwpunt
    Temp Baro 1h Neerslag Dauwpunt Wind UV Bewolking  
 04:49     22:04    Daglengte: 17:15 Vandaag
15:00
25°
1015.2 hPa   15.8°
3
Windvlaag: 4.2 m/s
41%
16:00
24°
1015.0 hPa   15.0°
3
Windvlaag: 4.5 m/s
64%
17:00
24°
1014.6 hPa
53%
15.0°
3
Windvlaag: 5 m/s
72%
18:00
23°
1014.6 hPa
75%
14.1°
3
Windvlaag: 5.4 m/s
68%
19:00
23°
1014.6 hPa
76%
15.7°
3
Windvlaag: 5.5 m/s
77%
20:00
21°
1014.4 hPa 0.6 mm
77%
18.3°
2
Windvlaag: 4.2 m/s
85%
21:00
20°
1014.4 hPa 0.4 mm
82%
18.3°
1
Windvlaag: 1.8 m/s
60%
22:00
19°
1014.4 hPa
80%
17.7°
1
Windvlaag: 0.1 m/s
76%
23:00
18°
1014.5 hPa 1.0 mm
82%
17.6°
1
Windvlaag: -0.2 m/s
80% warningclass
 04:51     22:02    Daglengte: 17:11 Morgen
00:00
18°
1014.3 hPa 0.8 mm
82%
17.3°
1
Windvlaag: 0.7 m/s
69% warningclass
01:00
18°
1013.9 hPa 1.0 mm
82%
17.1°
2
Windvlaag: -0.6 m/s
77% warningclass
02:00
18°
1013.8 hPa 1.6 mm
82%
17.0°
2
Windvlaag: -0.6 m/s
79% warningclass
03:00
18°
1013.5 hPa
82%
17.1°
2
Windvlaag: -0.6 m/s
83% warningclass
04:00
18°
1013.3 hPa 2.4 mm
82%
17.1°
2
Windvlaag: -1.8 m/s
86%
05:00
18°
1013.0 hPa 2.4 mm
82%
17.2°
2
Windvlaag: -1.5 m/s
84% warningclass
06:00
18°
1012.8 hPa 6.4 mm
82%
17.4°
2
Windvlaag: -0.6 m/s
86% warningclass
07:00
18°
1012.7 hPa 3.9 mm
82%
17.5°
2
Windvlaag: -1.6 m/s
80%
08:00
19°
1012.7 hPa
81%
18.0°
2
Windvlaag: -0.3 m/s
84%
09:00
19°
1012.6 hPa
26%
18.5°
2
Windvlaag: -1.7 m/s
84%
10:00
20°
1012.4 hPa
27%
19.0°
2
Windvlaag: -2.2 m/s
72%
11:00
21°
1012.0 hPa
74%
18.3°
2
Windvlaag: -3 m/s
60%
12:00
22°
1011.6 hPa
80%
13.7°
2
Windvlaag: -4.6 m/s
86%
13:00
22°
1011.4 hPa
81%
14.4°
3
Windvlaag: -4.5 m/s
86%
14:00
20°
1011.1 hPa 4.3 mm
82%
18.1°
2
Windvlaag: -3.9 m/s
86%
15:00
20°
1010.4 hPa 3.7 mm
82%
18.4°
3
Windvlaag: -3.2 m/s
86%
16:00
21°
1010.0 hPa
81%
18.9°
3
Windvlaag: -2.6 m/s
86%
17:00
21°
1009.4 hPa
82%
19.3°
2
Windvlaag: -3 m/s
86%
18:00
21°
1008.7 hPa 3.8 mm
82%
19.1°
2
Windvlaag: -2.6 m/s
84% warningclass
19:00
20°
1008.4 hPa 5.0 mm
82%
19.1°
3
Windvlaag: -1.4 m/s
86% warningclass
20:00
20°
1008.1 hPa 5.4 mm
82%
18.4°
3
Windvlaag: -0.5 m/s
72% warningclass
21:00
19°
1007.8 hPa 6.1 mm
82%
18.0°
2
Windvlaag: 2 m/s
82% warningclass
22:00
19°
1007.8 hPa 6.3 mm
82%
17.7°
1
Windvlaag: -2 m/s
85%
23:00
18°
1007.8 hPa 5.6 mm
82%
17.7°
2
Windvlaag: -2 m/s
86%
 04:53     21:59    Daglengte: 17:06 Woensdag 28 Jul
00:00
18°
1007.6 hPa 5.6 mm
82%
17.6°
2
Windvlaag: -2.4 m/s
84%
01:00
18°
1007.2 hPa 5.2 mm
82%
17.6°
1
Windvlaag: -2.6 m/s
77% warningclass
02:00
18°
1006.7 hPa 5.3 mm
82%
17.4°
1
Windvlaag: -1.4 m/s
84% warningclass
03:00
18°
1006.3 hPa 5.6 mm
82%
17.3°
1
Windvlaag: -1.3 m/s
85% warningclass
04:00
17°
1005.8 hPa 5.5 mm
82%
17.1°
1
Windvlaag: -1.2 m/s
86%
05:00
17°
1005.4 hPa 5.6 mm
80%
16.9°
1
Windvlaag: -1.4 m/s
86%
06:00
17°
1005.1 hPa 5.7 mm
78%
16.7°
1
Windvlaag: -0.8 m/s
85%
07:00
18°
1004.9 hPa 6.4 mm
81%
17.2°
1
Windvlaag: -0.3 m/s
67%
08:00
18°
1005.0 hPa 7.3 mm
82%
17.6°
1
Windvlaag: 4.7 m/s
65%
09:00
18°
1004.9 hPa 8.4 mm
82%
17.5°
1
Windvlaag: 4.6 m/s
69%
10:00
19°
1004.7 hPa 8.0 mm
82%
16.8°
1
Windvlaag: 3.8 m/s
65%
11:00
19°
1003.8 hPa 8.5 mm
100%
16.8°
2
Windvlaag: 4 m/s
94%
12:00
20°
1003.6 hPa 8.5 mm
100%
15.6°
2
Windvlaag: 3.9 m/s
85%
13:00
20°
1003.3 hPa 8.5 mm
100%
15.2°
2
Windvlaag: 4.5 m/s
74%
14:00
20°
1003.0 hPa 8.5 mm
100%
15.7°
2
Windvlaag: 4.9 m/s
90%
15:00
20°
1002.7 hPa 8.3 mm
100%
16.3°
2
Windvlaag: 4.8 m/s
90%
16:00
20°
1002.4 hPa 8.4 mm
100%
16.5°
2
Windvlaag: 4.5 m/s
96%
17:00
20°
1002.1 hPa 8.2 mm
100%
15.6°
2
Windvlaag: 4.5 m/s
79%
18:00
19°
1001.8 hPa 13.5 mm
100%
15.0°
2
Windvlaag: 4.5 m/s
60%
19:00
19°
1001.3 hPa 13.7 mm
100%
14.5°
2
Windvlaag: 5.2 m/s
57%
20:00
19°
1001.0 hPa 13.6 mm
96%
15.8°
2
Windvlaag: 5.3 m/s
49% warningclass
21:00
18°
1000.8 hPa 13.5 mm
91%
16.0°
2
Windvlaag: 5.5 m/s
56% warningclass
22:00
17°
1000.6 hPa
87%
15.5°
2
Windvlaag: 5.8 m/s
86%
23:00
17°
1000.3 hPa
39%
14.8°
2
Windvlaag: 5.1 m/s
98%
 04:56     21:57    Daglengte: 17:01 Donderdag 29 Jul
00:00
16°
999.8 hPa
30%
14.5°
1
Windvlaag: 3.9 m/s
89%
01:00
16°
999.2 hPa
31%
14.3°
1
Windvlaag: 2.4 m/s
85%
02:00
16°
998.6 hPa
71%
14.2°
1
Windvlaag: 0.2 m/s
77%
03:00
15°
998.0 hPa
30%
14.2°
1
Windvlaag: -0.3 m/s
78%
04:00
15°
997.5 hPa
75%
14.0°
1
Windvlaag: -0.6 m/s
80%
05:00
15°
997.0 hPa
80%
14.1°
2
Windvlaag: -0.7 m/s
90%
06:00
15°
996.7 hPa
78%
14.2°
2
Windvlaag: -0.9 m/s
91%
07:00
16°
996.5 hPa 13.7 mm
40%
14.2°
2
Windvlaag: -1.1 m/s
90%
08:00
16°
996.2 hPa 14.1 mm
76%
13.8°
2
Windvlaag: -1.4 m/s
90%
09:00
17°
993.9 hPa 13.6 mm
85%
13.3°
2
Windvlaag: 7.1 m/s
90%
10:00
17°
993.5 hPa 13.7 mm
92%
12.5°
2
Windvlaag: 6.4 m/s
86%
11:00
18°
993.3 hPa 13.7 mm
100%
14.6°
2
Windvlaag: 8.6 m/s
90%
12:00
18°
992.7 hPa 13.8 mm
100%
13.5°
3
Windvlaag: 6.6 m/s
89%
13:00
18°
992.5 hPa 14.0 mm
100%
14.5°
3
Windvlaag: 7.9 m/s
96% warningclass
14:00
19°
992.2 hPa 14.2 mm
100%
11.9°
3
Windvlaag: 8.2 m/s
85%
Temp/Neerslag /Baro Onweer/Dauwpunt
    Temp Baro Neerslag Dauwpunt Wind Bewolking  
 04:49     22:04    Daglengte: 17:15 Vandaag
17:00
24°
1014.6 hPa   15.0°
3
72%
20:00
21°
1014.4 hPa 0.6 mm 18.3°
2
85%
23:00
18°
1014.5 hPa 1.4 mm 17.6°
1
80% warningclass
 04:51     22:02    Daglengte: 17:11 Morgen
02:00
18°
1013.8 hPa 3.4 mm 17.0°
2
79% warningclass
05:00
18°
1013.0 hPa 4.8 mm 17.2°
2
84% warningclass
08:00
19°
1012.7 hPa 10.3 mm 18.0°
2
84%
11:00
21°
1012.0 hPa   18.3°
2
60%
14:00
20°
1011.1 hPa 4.3 mm 18.1°
2
86%
17:00
21°
1009.4 hPa 3.7 mm 19.3°
2
86% warningclass
20:00
20°
1008.1 hPa 14.1 mm 18.4°
3
72% warningclass
23:00
18°
1007.8 hPa 18.1 mm 17.7°
2
86%
 04:53     21:59    Daglengte: 17:06 Woensdag 28 Jul
02:00
18°
1006.7 hPa 16.1 mm 17.4°
1
84% warningclass
05:00
17°
1005.4 hPa 16.7 mm 16.9°
1
86%
08:00
18°
1005.0 hPa 19.4 mm 17.6°
1
65%
11:00
19°
1003.8 hPa 24.9 mm 16.8°
2
94%
14:00
20°
1003.0 hPa 25.5 mm 15.7°
2
90%
17:00
20°
1002.1 hPa 24.8 mm 15.6°
2
79%
20:00
19°
1001.0 hPa 40.8 mm 15.8°
2
49% warningclass
23:00
17°
1000.3 hPa 13.5 mm 14.8°
2
98%
 04:56     21:57    Daglengte: 17:01 Donderdag 29 Jul
02:00
16°
998.6 hPa   14.2°
1
77%
05:00
15°
997.0 hPa   14.1°
2
90%
08:00
16°
996.2 hPa 27.8 mm 13.8°
2
90%
11:00
18°
993.3 hPa 41.0 mm 14.6°
2
90%
14:00
19°
992.2 hPa 42.0 mm 11.9°
3
85%
17:00
16°
994.4 hPa 47.3 mm 13.6°
3
1%
20:00
15°
993.1 hPa 47.4 mm 12.6°
2
1%
23:00
11°
992.5 hPa 47.4 mm 11.2°
1
1%
 04:58     21:55    Daglengte: 16:57 Vrijdag 30 Jul
02:00
11°
991.8 hPa 47.4 mm 10.3°
1
1%
05:00
10°
991.5 hPa 47.4 mm 10.2°
1
1%
08:00
13°
992.0 hPa 47.4 mm 11.8°
1
1%
11:00
18°
992.7 hPa 47.4 mm 13.0°
2
1%
14:00
21°
993.5 hPa 47.4 mm 9.4°
1
1%
17:00
24°
993.5 hPa 47.4 mm 10.1°
0
0%
20:00
21°
993.9 hPa 47.4 mm 12.8°
1
0%
23:00
14°
996.2 hPa 47.4 mm 11.0°
2
0%
 05:00     21:52    Daglengte: 16:52 Zaterdag 31 Jul
02:00
12°
997.8 hPa 47.4 mm 7.8°
1
0%
05:00
11°
998.5 hPa 47.4 mm 7.4°
1
0%
08:00
14°
998.4 hPa 47.4 mm 8.5°
1
1%
11:00
16°
998.7 hPa 47.7 mm 10.0°
1
1%
14:00
19°
998.1 hPa 47.8 mm 9.0°
1
1%
17:00
20°
997.1 hPa 47.8 mm 8.7°
1
1%
20:00
18°
996.4 hPa 47.8 mm 11.7°
1
1%
23:00
14°
996.8 hPa 47.8 mm 10.9°
1
1%
 05:03     21:50    Daglengte: 16:47 Zondag 01 Aug
02:00
12°
996.6 hPa 47.8 mm 9.9°
1
1%
05:00
12°
996.3 hPa 47.8 mm 9.9°
1
1%
08:00
14°
995.9 hPa 47.8 mm 10.9°
1
1%
11:00
15°
996.1 hPa 48.0 mm 11.4°
1
1%
14:00
15°
996.5 hPa 49.6 mm 12.0°
2
1%
17:00
14°
996.7 hPa 50.6 mm 12.4°
2
1%
20:00
13°
996.7 hPa 51.1 mm 12.2°
2
1%
23:00
12°
997.1 hPa 51.3 mm 11.8°
2
1%
 05:05     21:47    Daglengte: 16:42 Maandag 02 Aug
02:00
12°
997.0 hPa 51.5 mm 11.3°
2
1%
05:00
10°
997.6 hPa 51.5 mm 9.8°
2
1%
08:00
11°
998.2 hPa 51.5 mm 8.7°
3
1%
11:00
13°
998.8 hPa 51.5 mm 7.4°
2
1%
14:00
16°
998.6 hPa 103.0 mm 6.9°
0
1%
20:00
14°
997.4 hPa 106.9 mm 11.5°
1
1%
 05:07     21:44    Daglengte: 16:37 Dinsdag 03 Aug
02:00
Voelt als: 6.2°
1000.7 hPa 109.4 mm 6.7°
2
0%
08:00
Voelt als: 9.2°
1002.3 hPa 109.4 mm 6.7°
1
0%
14:00
20°
1000.9 hPa 109.4 mm 3.2°
1
0%
20:00
17°
1001.0 hPa 109.5 mm 5.2°
3
1%
 05:10     21:42    Daglengte: 16:32 Woensdag 04 Aug
02:00
Voelt als: 7.6°
1004.8 hPa 109.5 mm 4.6°
1
0%
08:00
12°
1004.7 hPa 109.5 mm 4.9°
1
0%
14:00
16°
1001.0 hPa 109.6 mm 5.4°
2
1%
20:00
12°
997.7 hPa 118.1 mm 11.1°
2
1%
 05:12     21:39    Daglengte: 16:27 Donderdag 05 Aug
02:00
11°
996.1 hPa 129.2 mm 11.1°
1
1%
08:00
12°
994.3 hPa 130.0 mm 11.4°
1
1%
14:00
19°
1006.5 hPa 1.1 mm 11.6°
1
75%
20:00
17°
1006.0 hPa 1.6 mm 12.6°
1
78%
 05:15     21:37    Daglengte: 16:22 Vrijdag 06 Aug
02:00
12°
1007.3 hPa 0.5 mm 10.5°
0
72%
08:00
14°
1006.8 hPa 0.3 mm 11.3°
1
70%
14:00
19°
1005.6 hPa 1.5 mm 12.8°
1
75%
20:00
17°
1004.3 hPa 1.9 mm 13.4°
1
82%
 05:17     21:34    Daglengte: 16:17 Zaterdag 07 Aug
02:00
12°
1004.9 hPa 1.3 mm 11.2°
1
70%
08:00
14°
1004.7 hPa 1.9 mm 12.1°
1
73%
14:00
20°
1004.0 hPa 0.7 mm 13.1°
1
75%
20:00
18°
1003.5 hPa 1.5 mm 13.5°
1
73%
 05:19     21:31    Daglengte: 16:12 Zondag 08 Aug
02:00
13°
1004.7 hPa 1.1 mm 11.5°
1
71%
08:00
14°
1004.4 hPa 1.1 mm 12.4°
1
85%
14:00
19°
1004.0 hPa 2.2 mm 13.3°
1
83%
20:00
18°
1006.3 hPa 1.2 mm 12.7°
1
73%
 05:22     21:28    Daglengte: 16:06 Maandag 09 Aug
02:00
12°
1008.0 hPa 0.7 mm 10.9°
0
70%
08:00
14°
1008.1 hPa 0.8 mm 11.5°
0
73%
14:00
20°
1008.0 hPa 1.2 mm 12.1°
1
69%
20:00
18°
1008.1 hPa 1.5 mm 12.8°
1
70%
 05:24     21:26    Daglengte: 16:02 Dinsdag 10 Aug
02:00
12°
1009.7 hPa 0.7 mm 11.0°
0
60%
08:00
14°
1009.9 hPa 1.1 mm 11.5°
1
61%
14:00
21°
1009.5 hPa 1.0 mm 12.5°
0
62%
  CAPE Lifted Index Hail Supercell Tornado SRH 3km CL BTM PRES CL TOP PRES Swiss DWD icon SMHI TS
 04:49     22:04    Daglengte: 17:15 Vandaag
15:00 58 J/kg -0.2 K 0 % 0 % 0 % 0 m²/s² 0 0 1.21 3
16:00 274 J/kg -1.3 K 0 % 0 % 0 % 0 m²/s² 0 0 -0.19 3
17:00 327 J/kg -1.3 K 0 % 0 % 0 % 0 m²/s² 0 0 -0.16 3
18:00 261 J/kg -1.1 K 0 % 0 % 0 % 0 m²/s² 0 0 0.22 3
19:00 325 J/kg -1.3 K 0 % 0 % 0 % 0 m²/s² 0 0 0.17 3
20:00 465 J/kg -1.8 K 0 % 0 % 0 % 0 m²/s² 0 0 -0.54 80
21:00 513 J/kg -2.4 K 0 % 0 % 0 % 0 m²/s² 0 0 -1.26 3
22:00 576 J/kg -2.9 K 0 % 0 % 0 % 0 m²/s² 0 0 -1.37 80
23:00 568 J/kg -2.5 K 0 % 0 % 0 % 0 m²/s² 0 0 -2.05 95
 04:51     22:02    Daglengte: 17:11 Morgen
00:00 320 J/kg -1.2 K 0 % 0 % 0 % 0 m²/s² 0 0 -0.54 95
01:00 200 J/kg -0.1 K 0 % 0 % 0 % 0 m²/s² 0 0 -0.07 95
02:00 18 J/kg 0.6 K 0 % 0 % 0 % 0 m²/s² 0 0 0.72 95
03:00 2 J/kg 0.1 K 0 % 0 % 0 % 0 m²/s² 0 0 0.13 95
04:00 0 J/kg -0.9 K 0 % 0 % 0 % 0 m²/s² 0 0 -0.87 80
05:00 0 J/kg -0.1 K 0 % 0 % 0 % 0 m²/s² 0 0 0.08 95
06:00 56 J/kg -0.2 K 0 % 0 % 0 % 0 m²/s² 0 0 0.37 95
07:00 105 J/kg -1.3 K 0 % 0 % 0 % 0 m²/s² 0 0 -0.31 80
08:00 193 J/kg -1.1 K 0 % 0 % 0 % 0 m²/s² 0 0 -0.68 61
09:00 255 J/kg -1.0 K 0 % 0 % 0 % 0 m²/s² 0 0 -1 3
10:00 412 J/kg -1.3 K 0 % 0 % 0 % 0 m²/s² 0 0 -1 3
11:00 445 J/kg -1.2 K 0 % 0 % 0 % 0 m²/s² 0 0 -1.17 3
12:00 204 J/kg -0.3 K 0 % 0 % 0 % 0 m²/s² 0 0 -0.27 61
13:00 395 J/kg -0.8 K 0 % 0 % 0 % 0 m²/s² 0 0 -0.35 61
14:00 446 J/kg -1.4 K 0 % 0 % 0 % 0 m²/s² 0 0 -1.31 61
15:00 12 J/kg -0.3 K 0 % 0 % 0 % 0 m²/s² 0 0 0.51 80
16:00 345 J/kg -1.9 K 0 % 0 % 0 % 0 m²/s² 0 0 -0.64 61
17:00 1015 J/kg -3.9 K 0 % 0 % 0 % 0 m²/s² 0 0 -2.04 3
18:00 1327 J/kg -5.2 K 0 % 0 % 0 % 0 m²/s² 0 0 -4.3 80
19:00 1268 J/kg -4.2 K 0 % 0 % 0 % 0 m²/s² 0 0 -3.72 80
20:00 1379 J/kg -5.1 K 0 % 0 % 0 % 0 m²/s² 0 0 -3.12 95
21:00 1179 J/kg -4.4 K 0 % 0 % 0 % 0 m²/s² 0 0 -1.94 95
22:00 537 J/kg -2.8 K 0 % 0 % 0 % 0 m²/s² 0 0 -0.25 80
23:00 376 J/kg -2.6 K 0 % 0 % 0 % 0 m²/s² 0 0 -0.41 80
 04:53     21:59    Daglengte: 17:06 Woensdag 28 Jul
00:00 407 J/kg -2.4 K 0 % 0 % 0 % 0 m²/s² 0 0 -0.42 80
01:00 337 J/kg -2.2 K 0 % 0 % 0 % 0 m²/s² 0 0 -0.43 95
02:00 263 J/kg -1.7 K 0 % 0 % 0 % 0 m²/s² 0 0 -0.38 95
03:00 69 J/kg -1.7 K 0 % 0 % 0 % 0 m²/s² 0 0 -0.95 95
04:00 77 J/kg -0.4 K 0 % 0 % 0 % 0 m²/s² 0 0 0.35 80
05:00 31 J/kg -0.6 K 0 % 0 % 0 % 0 m²/s² 0 0 0.21 80
06:00 27 J/kg -1.0 K 0 % 0 % 0 % 0 m²/s² 0 0 -0.64 45
07:00 35 J/kg -1.2 K 0 % 0 % 0 % 0 m²/s² 0 0 -0.81 80
08:00 82 J/kg -1.2 K 0 % 0 % 0 % 0 m²/s² 0 0 -1.2 80
09:00 101 J/kg -0.5 K 0 % 0 % 0 % 0 m²/s² 0 0 0.22 3
10:00 214 J/kg 0.0 K 0 % 0 % 0 % 0 m²/s² 0 0 0.9 3
11:00 263 J/kg -0.5 K 0 % 0 % 0 % 0 m²/s² 0 0 1.15 80
12:00 413 J/kg -1.3 K 0 % 0 % 0 % 0 m²/s² 0 0 0.05 80
13:00 395 J/kg -1.5 K 0 % 0 % 0 % 0 m²/s² 0 0 -0.12 80
14:00 422 J/kg -1.7 K 0 % 0 % 0 % 0 m²/s² 0 0 -0.71 80
15:00 356 J/kg -1.6 K 0 % 0 % 0 % 0 m²/s² 0 0 -0.4 80
16:00 370 J/kg -1.9 K 0 % 0 % 0 % 0 m²/s² 0 0 -0.52 3
17:00 415 J/kg -2.0 K 0 % 0 % 0 % 0 m²/s² 0 0 -0.68 3
18:00 486 J/kg -2.1 K 0 % 0 % 0 % 0 m²/s² 0 0 -0.57 3
19:00 594 J/kg -2.8 K 0 % 0 % 0 % 0 m²/s² 0 0 -1.33 80
20:00 780 J/kg -3.3 K 0 % 0 % 0 % 0 m²/s² 0 0 -2.34 80
21:00 716 J/kg -3.3 K 0 % 0 % 0 % 0 m²/s² 0 0 -2.55 3
22:00 549 J/kg -2.9 K 0 % 0 % 0 % 0 m²/s² 0 0 -2.15 3
23:00 159 J/kg -1.3 K 0 % 0 % 0 % 0 m²/s² 0 0 -0.46 3
 04:56     21:57    Daglengte: 17:01 Donderdag 29 Jul
00:00 0 J/kg -2.1 K 0 % 0 % 0 % 0 m²/s² 0 0 -0.63 3
01:00 0 J/kg -2.8 K 0 % 0 % 0 % 0 m²/s² 0 0 -0.37 3
02:00 49 J/kg -2.5 K 0 % 0 % 0 % 0 m²/s² 0 0 0.38 3
03:00 59 J/kg -2.0 K 0 % 0 % 0 % 0 m²/s² 0 0 -0.08 3
04:00 9 J/kg -1.8 K 0 % 0 % 0 % 0 m²/s² 0 0 -0.45 3
05:00 0 J/kg -1.7 K 0 % 0 % 0 % 0 m²/s² 0 0 -0.71 3
06:00 1 J/kg -0.6 K 0 % 0 % 0 % 0 m²/s² 0 0 0.48 3
07:00 32 J/kg -0.8 K 0 % 0 % 0 % 0 m²/s² 0 0 0.04 3
08:00 226 J/kg -1.4 K 0 % 0 % 0 % 0 m²/s² 0 0 -0.62 3
09:00 332 J/kg -1.7 K 0 % 0 % 0 % 0 m²/s² 0 0 -0.92 3
10:00 200 J/kg -1.3 K 0 % 0 % 0 % 0 m²/s² 0 0 -0.31 80
11:00 491 J/kg -2.0 K 0 % 0 % 0 % 0 m²/s² 0 0 -1.49 3
12:00 528 J/kg -2.6 K 0 % 0 % 0 % 0 m²/s² 0 0 -1.37 3
13:00 839 J/kg -3.9 K 0 % 0 % 0 % 0 m²/s² 0 0 -2.07 3
14:00 534 J/kg -2.9 K 0 % 0 % 0 % 0 m²/s² 0 0 -0.17 80
Temp Baro Wind Neerslag
  EWN Forecast EWN WRFDA DWD ICON FMI HIRLAM MET Norway GFS
 04:49     22:04    Daglengte: 17:15 Vandaag
17:00 24.2° 1014.6 hPa 3.0 m/s 0.0 mm 25.3° 1013.2 hPa 3.3 m/s 0.1 mm 24.2° 1014.6 hPa 4.2 m/s -2.0 mm 22.6° 1015.5 hPa 2.8 m/s 0.0 mm 25.3° 1014.1 hPa 3.0 m/s
20:00 20.7° 1014.4 hPa 1.6 m/s 0.6 mm 24.4° 1012.6 hPa 3.3 m/s 1.0 mm 20.8° 1014.2 hPa 1.0 m/s 0.5 mm 19.8° 1014.6 hPa 1.5 m/s 0.0 mm 24.0° 1013.3 hPa 2.5 m/s
23:00 18.3° 1014.5 hPa 1.2 m/s 1.4 mm 19.9° 1012.4 hPa 1.5 m/s 3.5 mm 18.1° 1014.8 hPa 1.1 m/s 1.4 mm 18.0° 1014.3 hPa 1.7 m/s 0.0 mm 17.2° 1013.8 hPa 1.4 m/s
 04:51     22:02    Daglengte: 17:11 Morgen
02:00 17.8° 1013.8 hPa 1.6 m/s 3.4 mm 18.3° 1012.2 hPa 3.2 m/s 5.2 mm 17.4° 1013.9 hPa 1.4 m/s 4.0 mm 17.8° 1013.8 hPa 1.5 m/s 0.0 mm 17.3° 1013.8 hPa 1.3 m/s
05:00 17.9° 1013.0 hPa 1.6 m/s 4.8 mm 17.6° 1011.1 hPa 2.3 m/s 20.5 mm 17.5° 1012.8 hPa 1.2 m/s 4.9 mm 18.2° 1013.1 hPa 1.5 m/s 0.0 mm 17.1° 1013.5 hPa 1.4 m/s
08:00 18.8° 1012.7 hPa 1.6 m/s 10.3 mm 19.7° 1011.0 hPa 3.4 m/s 44.4 mm 19.0° 1012.1 hPa 1.4 m/s 3.0 mm 18.8° 1012.9 hPa 1.7 m/s 0.0 mm 17.1° 1013.5 hPa 1.1 m/s
11:00 21.3° 1012.0 hPa 2.2 m/s 0.0 mm 22.4° 1009.6 hPa 4.1 m/s 47.2 mm 21.2° 1011.6 hPa 2.0 m/s 0.1 mm 21.6° 1012.3 hPa 2.4 m/s 0.0 mm 20.2° 1012.3 hPa 0.9 m/s
14:00 19.8° 1011.1 hPa 2.2 m/s 4.3 mm 20.9° 1008.6 hPa 4.7 m/s 48.8 mm 20.5° 1010.8 hPa 0.4 m/s 0.9 mm 19.7° 1011.6 hPa 2.2 m/s 0.0 mm 19.4° 1011.4 hPa 1.2 m/s
17:00 21.2° 1009.4 hPa 2.2 m/s 3.7 mm 22.1° 1006.9 hPa 2.8 m/s 53.6 mm 21.3° 1009.2 hPa 0.9 m/s 0.3 mm 20.0° 1009.7 hPa 3.0 m/s 0.0 mm 17.3° 1009.9 hPa 2.3 m/s
20:00 19.7° 1008.1 hPa 2.5 m/s 14.1 mm 20.9° 1005.9 hPa 2.0 m/s 65.0 mm 19.2° 1008.3 hPa 1.3 m/s 1.9 mm 20.1° 1007.8 hPa 3.8 m/s 0.0 mm 17.8° 1008.1 hPa 2.5 m/s
23:00 18.4° 1007.8 hPa 1.6 m/s 18.1 mm 18.7° 1006.5 hPa 2.4 m/s 71.2 mm 18.1° 1007.6 hPa 0.6 m/s 5.5 mm 19.2° 1007.8 hPa 2.6 m/s 0.0 mm 17.3° 1008.3 hPa 1.4 m/s
 04:53     21:59    Daglengte: 17:06 Woensdag 28 Jul
02:00 17.9° 1006.7 hPa 1.5 m/s 16.1 mm 18.8° 1005.4 hPa 3.5 m/s 71.9 mm 17.2° 1006.8 hPa 1.0 m/s 2.5 mm 18.7° 1006.8 hPa 1.1 m/s 0.0 mm 16.4° 1007.5 hPa 1.0 m/s
05:00 17.1° 1005.4 hPa 1.0 m/s 16.7 mm 17.4° 1004.8 hPa 2.4 m/s 77.8 mm 16.7° 1005.4 hPa 0.7 m/s 1.2 mm 17.2° 1006.3 hPa 0.7 m/s 0.0 mm 15.3° 1006.6 hPa 0.8 m/s
08:00 18.0° 1005.0 hPa 1.0 m/s 19.4 mm 17.6° 1004.3 hPa 1.2 m/s 92.8 mm 17.9° 1004.5 hPa 0.2 m/s 0.8 mm 19.3° 1006.2 hPa 0.9 m/s 0.0 mm 17.2° 1006.0 hPa 0.6 m/s
11:00 19.3° 1003.8 hPa 1.5 m/s 24.9 mm 20.2° 1002.7 hPa 1.9 m/s 115.0 mm 19.3° 1003.8 hPa 1.1 m/s 1.6 mm 18.9° 1004.9 hPa 0.9 m/s
14:00 19.8° 1003.0 hPa 2.1 m/s 25.5 mm 21.3° 1001.9 hPa 2.0 m/s 116.7 mm 19.7° 1002.9 hPa 2.1 m/s 1.3 mm 19.6° 1004.3 hPa 1.9 m/s
17:00 19.7° 1002.1 hPa 1.8 m/s 24.8 mm 21.4° 1000.2 hPa 0.8 m/s 119.6 mm 19.7° 1001.9 hPa 1.9 m/s 0.7 mm 20.5° 1003.0 hPa 2.0 m/s
20:00 18.6° 1001.0 hPa 2.3 m/s 40.8 mm 20.9° 998.4 hPa 2.5 m/s 120.5 mm 18.3° 1000.7 hPa 1.3 m/s 0.9 mm 19.0° 1002.1 hPa 1.7 m/s
23:00 16.6° 1000.3 hPa 1.6 m/s 13.5 mm 18.1° 997.1 hPa 4.0 m/s 121.2 mm 16.5° 999.9 hPa 0.7 m/s 0.2 mm 14.9° 1002.1 hPa 1.7 m/s
 04:56     21:57    Daglengte: 17:01 Donderdag 29 Jul
02:00 15.6° 998.6 hPa 1.2 m/s 0.0 mm 16.7° 996.5 hPa 2.9 m/s 121.3 mm 15.6° 997.8 hPa 0.5 m/s 0.0 mm 13.9° 1001.0 hPa 1.1 m/s
05:00 15.1° 997.0 hPa 1.5 m/s 0.0 mm 14.9° 996.0 hPa 3.0 m/s 121.3 mm 15.4° 996.0 hPa 0.7 m/s 0.0 mm 14.1° 999.8 hPa 1.1 m/s
08:00 16.3° 996.2 hPa 1.8 m/s 27.8 mm 17.5° 995.6 hPa 3.6 m/s 121.3 mm 16.3° 994.0 hPa 1.2 m/s 0.1 mm 14.6° 998.2 hPa 0.6 m/s
11:00 17.7° 993.3 hPa 2.3 m/s 41.0 mm 17.4° 996.1 hPa 5.6 m/s 121.5 mm 17.7° 992.6 hPa 1.5 m/s 0.7 mm 15.9° 997.2 hPa 1.1 m/s
14:00 18.7° 992.2 hPa 3.0 m/s 42.0 mm 19.8° 994.9 hPa 5.5 m/s 124.1 mm 18.4° 991.5 hPa 2.4 m/s 1.0 mm 16.8° 995.9 hPa 1.9 m/s
17:00 16.1° 994.4 hPa 2.8 m/s 47.3 mm 16.1° 994.4 hPa 2.8 m/s 47.3 mm
20:00 15.3° 993.1 hPa 1.8 m/s 47.4 mm 15.3° 993.1 hPa 1.8 m/s 47.4 mm
23:00 11.5° 992.5 hPa 1.3 m/s 47.4 mm 11.5° 992.5 hPa 1.3 m/s 47.4 mm
 04:58     21:55    Daglengte: 16:57 Vrijdag 30 Jul
02:00 10.5° 991.8 hPa 0.7 m/s 47.4 mm 10.5° 991.8 hPa 0.7 m/s 47.4 mm
05:00 10.4° 991.5 hPa 0.7 m/s 47.4 mm 10.4° 991.5 hPa 0.7 m/s 47.4 mm
08:00 13.4° 992.0 hPa 0.8 m/s 47.4 mm 13.4° 992.0 hPa 0.8 m/s 47.4 mm
11:00 18.5° 992.7 hPa 1.5 m/s 47.4 mm 18.5° 992.7 hPa 1.5 m/s 47.4 mm
14:00 20.8° 993.5 hPa 0.9 m/s 47.4 mm 20.8° 993.5 hPa 0.9 m/s 47.4 mm
17:00 23.8° 993.5 hPa 0.1 m/s 47.4 mm 23.8° 993.5 hPa 0.1 m/s 47.4 mm
20:00 21.0° 993.9 hPa 1.5 m/s 47.4 mm 21.0° 993.9 hPa 1.5 m/s 47.4 mm
23:00 14.0° 996.2 hPa 1.9 m/s 47.4 mm 14.0° 996.2 hPa 1.9 m/s 47.4 mm
 05:00     21:52    Daglengte: 16:52 Zaterdag 31 Jul
02:00 11.9° 997.8 hPa 1.2 m/s 47.4 mm 11.9° 997.8 hPa 1.2 m/s 47.4 mm
05:00 10.9° 998.5 hPa 1.0 m/s 47.4 mm 10.9° 998.5 hPa 1.0 m/s 47.4 mm
08:00 13.8° 998.4 hPa 0.8 m/s 47.4 mm 13.8° 998.4 hPa 0.8 m/s 47.4 mm
11:00 15.8° 998.7 hPa 1.0 m/s 47.7 mm 15.8° 998.7 hPa 1.0 m/s 47.7 mm
14:00 19.4° 998.1 hPa 0.8 m/s 47.8 mm 19.4° 998.1 hPa 0.8 m/s 47.8 mm
17:00 20.4° 997.1 hPa 1.1 m/s 47.8 mm 20.4° 997.1 hPa 1.1 m/s 47.8 mm
20:00 18.3° 996.4 hPa 0.7 m/s 47.8 mm 18.3° 996.4 hPa 0.7 m/s 47.8 mm
23:00 13.7° 996.8 hPa 1.4 m/s 47.8 mm 13.7° 996.8 hPa 1.5 m/s 47.8 mm
 05:03     21:50    Daglengte: 16:47 Zondag 01 Aug
02:00 11.8° 996.6 hPa 1.5 m/s 47.8 mm 11.8° 996.6 hPa 1.5 m/s 47.8 mm
05:00 11.7° 996.3 hPa 1.4 m/s 47.8 mm 11.7° 996.3 hPa 1.4 m/s 47.8 mm
08:00 14.1° 995.9 hPa 1.1 m/s 47.8 mm 14.1° 995.9 hPa 1.1 m/s 47.8 mm
11:00 15.3° 996.1 hPa 1.4 m/s 48.0 mm 15.3° 996.1 hPa 1.4 m/s 48.0 mm
14:00 14.9° 996.5 hPa 1.8 m/s 49.6 mm 14.9° 996.5 hPa 1.8 m/s 49.6 mm
17:00 14.2° 996.7 hPa 1.9 m/s 50.6 mm 14.2° 996.7 hPa 1.9 m/s 50.6 mm
20:00 13.0° 996.7 hPa 1.7 m/s 51.1 mm 13.0° 996.7 hPa 1.7 m/s 51.1 mm
23:00 12.4° 997.1 hPa 1.7 m/s 51.3 mm 12.4° 997.1 hPa 1.7 m/s 51.3 mm
 05:05     21:47    Daglengte: 16:42 Maandag 02 Aug
02:00 11.8° 997.0 hPa 1.9 m/s 51.5 mm 11.8° 997.0 hPa 1.9 m/s 51.5 mm
05:00 10.4° 997.6 hPa 1.7 m/s 51.5 mm 10.4° 997.6 hPa 1.7 m/s 51.5 mm
08:00 11.1° 998.2 hPa 2.5 m/s 51.5 mm 11.1° 998.2 hPa 2.5 m/s 51.5 mm
11:00 13.4° 998.8 hPa 1.5 m/s 51.5 mm 13.4° 998.8 hPa 1.5 m/s 51.5 mm
14:00 15.8° 998.6 hPa 0.2 m/s 51.6 mm 15.8° 998.6 hPa 0.2 m/s 51.6 mm
20:00 14.5° 997.4 hPa 1.4 m/s 54.3 mm 14.5° 997.4 hPa 1.4 m/s 54.3 mm
 05:07     21:44    Daglengte: 16:37 Dinsdag 03 Aug
02:00 7.2° 1000.7 hPa 1.8 m/s 54.7 mm 7.2° 1000.7 hPa 1.8 m/s 54.7 mm
08:00 9.2° 1002.3 hPa 0.8 m/s 54.7 mm 9.2° 1002.3 hPa 0.8 m/s 54.7 mm
14:00 19.7° 1000.9 hPa 1.1 m/s 54.7 mm 19.7° 1000.9 hPa 1.1 m/s 54.7 mm
20:00 16.9° 1001.0 hPa 2.5 m/s 54.7 mm 16.9° 1001.0 hPa 2.5 m/s 54.7 mm
 05:10     21:42    Daglengte: 16:32 Woensdag 04 Aug
02:00 8.0° 1004.8 hPa 1.4 m/s 54.7 mm 8.0° 1004.8 hPa 1.4 m/s 54.7 mm
08:00 11.9° 1004.7 hPa 0.9 m/s 54.7 mm 11.9° 1004.7 hPa 0.9 m/s 54.7 mm
14:00 16.4° 1001.0 hPa 1.6 m/s 54.9 mm 16.4° 1001.0 hPa 1.6 m/s 54.9 mm
20:00 11.6° 997.7 hPa 1.7 m/s 61.6 mm 11.6° 997.7 hPa 1.7 m/s 61.6 mm
 05:12    &n